AirNav   TITAN Aviation Fuels
 
 883 users online  

KBNG Banning Municipal Airport
Banning, California, USA

GOING TO BANNING?


FAA INFORMATION EFFECTIVE 08 SEPTEMBER 2022

Location

FAA Identifier: BNG
Lat/Long: 33-55-21.2000N 116-51-03.5000W
33-55.353333N 116-51.058333W
33.9225556,-116.8509722
(estimated)
Elevation: 2222.4 ft. / 677.4 m (surveyed)
Variation: 14E (1985)
From city: 1 mile SE of BANNING, CA
Time zone: UTC -7 (UTC -8 during Standard Time)
Zip code: 92220

Airport Operations

Airport use: Open to the public
Activation date: 04/1940
Control tower: no
ARTCC: LOS ANGELES CENTER
FSS: RIVERSIDE FLIGHT SERVICE STATION
NOTAMs facility: RAL (NOTAM-D service available)
Attendance: MON-FRI 0900-1530
FOR ARPT ATTENDANT CALL (951) 922-3320.
Wind indicator: lighted
Segmented circle: yes
Lights: ACTVT MIRL RWY 08/26 - CTAF.
Beacon: white-green (lighted land airport)
Operates sunset to sunrise.

Airport Communications

CTAF/UNICOM: 122.8
WX AWOS-3: 134.625 (951-922-4674)
WX AWOS-3PT at HMT (14 nm SW): 118.375 (951-925-6886)
WX ASOS at PSP (18 nm E): PHONE 760-322-7597

Nearby radio navigation aids

VOR radial/distance  VOR name  Freq  Var
HDFr048/(18.8)HOMELAND VOR112.0514E
PSPr266/21.2PALM SPRINGS VORTAC115.5013E
RALr080/(29.9)RIVERSIDE VOR108.6014E
PDZr075/33.8PARADISE VORTAC112.2015E
TRMr284/38.7THERMAL VORTAC116.2013E

Airport Services

Fuel available: 100LL
100LL:FUEL AVBL WITH 24 HR SELF SVC CREDIT CARD. FUEL APN NOT LEVEL AND ACFT MAY NOT FILL COMPLETELY.
Parking: tiedowns
Airframe service: NONE
Powerplant service: NONE
Bottled oxygen: NONE
Bulk oxygen: NONE

Runway Information

Runway 8/26

Dimensions: 4955 x 100 ft. / 1510 x 30 m
Surface: asphalt, in fair condition
Weight bearing capacity: 
Single wheel: 12.5
Runway edge lights: medium intensity
RUNWAY 8  RUNWAY 26
Latitude: 33-55.356430N33-55.349927N
Longitude: 116-51.548577W116-50.568532W
Elevation: 2222.4 ft.2103.8 ft.
Traffic pattern: leftright
Markings: basic, in fair conditionbasic, in fair condition
Visual slope indicator: 2-light PAPI on left (3.50 degrees glide path)
Touchdown point: yes, no lightsyes, no lights

Airport Ownership and Management from official FAA records

Ownership: Publicly-owned
Owner: CITY OF BANNING
P.O. BOX 998
BANNING, CA 92220
Phone (951) 922-3105
Manager: CARL SZOYKA
176 EAST LINCOLN STREET, PO BOX 998
BANNING, CA 92220-0998
Phone 951-922-3286

Airport Operational Statistics

Aircraft based on the field: 16
Single engine airplanes: 13
Multi engine airplanes: 2
Helicopters: 1
    
Aircraft operations: avg 105/week *
75% transient general aviation
25% local general aviation
* for 12-month period ending 31 December 2020

Additional Remarks

NO INTERSECTION TAKEOFFS TO THE WEST.
RY 08/26 NO STRAIGHT-IN LANDINGS.
RWY 26 AFTER TAKEOFF AVOID OVERFLYING HOUSES 4 MILES WEST.
FOR CD CTC LOS ANGELES ARTCC AT 661-575-2079.

Instrument Procedures

There are no published instrument procedures at KBNG.

Some nearby airports with instrument procedures:

KHMT - Hemet-Ryan Airport (14 nm SW)
KREI - Redlands Municipal Airport (18 nm NW)
KPSP - Palm Springs International Airport (18 nm E)
KRIV - March Air Reserve Base (20 nm W)
L35 - Big Bear City Airport (20 nm N)
 
Loc | Ops | Rwys | IFR | FBO | Links
Com | Nav | Svcs | Stats | Notes

Luxivair - San Bernardino International Airport
 
Area around KBNG (Banning Municipal Airport)
 
Road maps at: MapQuest Bing Google
 
Aerial photo
WARNING: Photo may not be current or correct
Aerial photo of KBNG (Banning Municipal Airport)
Photo taken 30-Oct-2013
looking southwest.

Do you have a better or more recent aerial photo of Banning Municipal Airport that you would like to share? If so, please send us your photo.

 
Sectional chart

 
Airport distance calculator
Flying to Banning Municipal Airport? Find the distance to fly.

From to KBNG

Sunrise and sunset
Times for 02-Oct-2022
 Local
(UTC-7)
 Zulu
(UTC)
Morning civil twilight06:1913:19
Sunrise06:4413:44
Sunset18:3001:30
Evening civil twilight18:5501:55

Current date and time
Zulu (UTC)  03-Oct-2022 00:41:47
Local (UTC-7)  02-Oct-2022 17:41:47
 
METAR
KHMT 
14nm SW 
030015Z AUTO 22014KT 10SM CLR 28/15 A2990 RMK AO2 T02840151
KPSP 
19nm E 
022353Z AUTO 17004KT 10SM CLR 35/17 A2981 RMK AO2 SLP089 T03500167 10356 20311 56013
KL35 
20nm N 
030015Z AUTO 26005KT 10SM SCT048 SCT055 18/07 A3022 RMK AO2
KRIV 
21nm W 
022355Z AUTO 31009KT 10SM CLR 29/15 A2990 RMK AO2 SLP112 T02870145 10293 20212 56009
KSBD 
22nm NW 
022351Z 27005KT 7SM FEW100 31/11 A2988
KF70 
25nm SW 
030015Z AUTO 20007KT 10SM CLR 25/15 A2991 RMK AO2
TAF
KPSP 
19nm E 
021730Z 0218/0318 VRB04KT P6SM SKC FM021900 10008KT P6SM SCT100 FM030200 33011KT P6SM SKC FM030800 VRB04KT P6SM SKC
KRIV 
21nm W 
022012Z 0220/0402 32009KT 9999 FEW100 QNH2994INS BECMG 0220/0221 32009KT 9999 FEW100 FEW250 QNH2991INS TS OMTNS NE-SE TEMPO 0222/0301 32012G18KT BECMG 0300/0301 32009KT 9999 FEW120 FEW250 QNH2993INS BECMG 0304/0305 31006KT 9999 FEW120 FEW250 QNH2999INS BECMG 0310/0311 31004KT 4800 BR OVC004 QNH2998INS BECMG 0314/0315 VRB04KT 8000 BR BKN007 QNH3001INS BECMG 0315/0316 31004KT 9999 NSW FEW010 QNH3000INS BECMG 0317/0318 32006KT 9999 FEW100 QNH2993INS BECMG 0320/0321 32009KT 9999 SCT100 SCT250 510005
KSBD 
22nm NW 
021730Z 0218/0318 VRB04KT 4SM HZ SCT015 FM022200 25009KT P6SM SCT100 FM030400 VRB04KT P6SM SKC FM030900 VRB04KT P6SM BKN015 FM031700 VRB04KT P6SM SCT015
NOTAMs
Click for the latest NOTAMs
NOTAMs are issued by the DoD/FAA and will open in a separate window not controlled by AirNav.

 

 
 

FBO, Fuel Providers, and Aircraft Ground Support

  
 Business Name 
 
 Contact 
 
 Services / Description 
 
Fuel Prices
 
Comments
  
City of Banning 951-922-3320
no information available

If you are affiliated with City of Banning and would like to show here your services, contact info, web link, logo, and more, click here
100LL
SS $6.56 
 Updated 05-May-2022
 
   1 read write
SS=Self service
Update Fuel Prices
 

Would you like to see your business listed on this page?

 If your business provides an interesting product or service to pilots, flight crews, aircraft, or users of the Banning Municipal Airport, you should consider listing it here.  To start the listing process, click on the button below
 
Add a business
 

Other Pages about Banning Municipal Airport

www.ci.banning.ca.us/...
 
Update a link
 
Copyright © AirNav, LLC. All rights reserved. Privacy Policy  Contact